Meadville, PA

10:54 PM EST on December 04, 2016 (GMT -0500)
Port Meadville

Weather History for KGKJ - January, 2014

Change the Weather History Date:

Sunday, January 5, 2014

  Actual Average Record
Temperature  
Mean Temperature 37 °F -  
Max Temperature 44 °F 35 °F 61 °F (1950)
Min Temperature 30 °F 15 °F -4 °F (1968)
Degree Days  
Heating Degree Days 28    
Moisture  
Dew Point 25 °F    
Average Humidity 65    
Maximum Humidity 93    
Minimum Humidity 42    
Precipitation  
Precipitation 0.39 in - - ()
Sea Level Pressure  
Sea Level Pressure 29.78 in    
Wind  
Wind Speed 4 mph (SE)    
Max Wind Speed 8 mph    
Max Gust Speed 16 mph    
Visibility 9 miles    
Events Rain    
Averages and records for this station are not official NWS values.
T = Trace of Precipitation, MM = Missing Value Source: NWS Daily Summary

Daily Weather History Graph

Daily Weather History Graph

Search for Another Location

Airport or City:

Trip Planner

Search our weather history database for the weather conditions in past years. The results will help you decide how hot, cold, wet, or windy it might be!

Date:

Astronomy

Jan. 05, 2014 Rise Set
Actual Time 7:47 AM EST 5:05 PM EST
Civil Twilight 7:16 AM EST 5:36 PM EST
Nautical Twilight 6:41 AM EST 6:10 PM EST
Astronomical Twilight 6:08 AM EST 6:44 PM EST
Moon 10:24 AM EST 10:35 PM EST
Length of Visible Light 10h 19m
Length of Day
9h 17m
Waxing Crescent, 24% of the Moon is Illuminated
Jan 5
Waxing Crescent
Jan 7
First Quarter
Jan 15
Full
Jan 24
Last Quarter
Jan 30
New

Hourly Weather History & Observations

Time (EST) Temp. Windchill Dew Point Humidity Pressure Visibility Wind Dir Wind Speed Gust Speed Precip Events Conditions
12:53 AM 32.0 °F 27.5 °F 10.9 °F 42% 30.10 in 10.0 mi Variable 4.6 mph - N/A   Overcast
1:53 AM 32.0 °F 26.4 °F 12.0 °F 44% 30.10 in 10.0 mi South 5.8 mph - N/A   Overcast
2:53 AM 32.0 °F 27.5 °F 12.9 °F 45% 30.10 in 10.0 mi South 4.6 mph - N/A   Overcast
3:53 AM 30.9 °F - 12.9 °F 47% 30.08 in 10.0 mi Calm Calm - N/A   Overcast
4:53 AM 30.9 °F - 12.9 °F 47% 30.07 in 10.0 mi Calm Calm - N/A   Overcast
5:53 AM 30.9 °F 27.5 °F 12.9 °F 47% 30.07 in 10.0 mi Variable 3.5 mph - N/A   Overcast
6:53 AM 30.0 °F 26.5 °F 12.0 °F 47% 30.07 in 10.0 mi Variable 3.5 mph - N/A   Overcast
7:53 AM 30.0 °F 25.2 °F 12.9 °F 49% 30.07 in 10.0 mi South 4.6 mph - N/A   Overcast
8:53 AM 30.9 °F 26.2 °F 14.0 °F 50% 30.06 in 10.0 mi Variable 4.6 mph - N/A   Overcast
9:53 AM 32.0 °F 28.7 °F 16.0 °F 52% 30.05 in 10.0 mi Variable 3.5 mph - N/A   Overcast
10:53 AM 33.1 °F - 15.1 °F 48% 30.04 in 10.0 mi Calm Calm - N/A   Overcast
11:53 AM 34.0 °F 31.0 °F 18.0 °F 52% 29.98 in 10.0 mi Variable 3.5 mph - N/A   Overcast
12:14 PM 35.6 °F - 19.4 °F 52% 29.92 in 10.0 mi Calm Calm - N/A   Overcast
12:36 PM 35.6 °F - 19.4 °F 52% 29.90 in 10.0 mi Calm Calm - N/A   Overcast
12:53 PM 36.0 °F - 19.0 °F 50% 29.92 in 10.0 mi Calm Calm - N/A   Overcast
1:53 PM 36.0 °F 31.1 °F 21.0 °F 55% 29.87 in 10.0 mi East 5.8 mph - N/A   Overcast
2:27 PM 35.6 °F 31.7 °F 23.0 °F 60% 29.80 in 10.0 mi Variable 4.6 mph - N/A   Overcast
2:53 PM 36.0 °F 33.3 °F 25.0 °F 64% 29.82 in 10.0 mi Variable 3.5 mph - N/A   Overcast
3:06 PM 37.4 °F 34.9 °F 24.8 °F 60% 29.78 in 10.0 mi ESE 3.5 mph - N/A   Overcast
3:44 PM 37.4 °F 33.8 °F 26.6 °F 65% 29.74 in 10.0 mi ESE 4.6 mph - N/A   Overcast
3:53 PM 37.0 °F 32.4 °F 26.1 °F 65% 29.77 in 10.0 mi East 5.8 mph - N/A   Overcast
4:13 PM 37.4 °F 33.8 °F 26.6 °F 65% 29.72 in 10.0 mi East 4.6 mph - N/A   Overcast
4:53 PM 37.0 °F 31.6 °F 27.0 °F 67% 29.71 in 10.0 mi East 6.9 mph - N/A   Overcast
5:53 PM 39.0 °F 35.7 °F 27.0 °F 62% 29.67 in 10.0 mi Variable 4.6 mph - N/A   Unknown
6:53 PM 37.9 °F 34.4 °F 30.9 °F 76% 29.63 in 9.0 mi Variable 4.6 mph - 0.01 in Rain Light Rain
7:53 PM 36.0 °F - 33.1 °F 89% 29.57 in 10.0 mi Calm Calm - 0.03 in   Overcast
8:53 PM 42.1 °F 40.2 °F 39.0 °F 89% 29.52 in 5.0 mi Variable 3.5 mph - 0.06 in Rain Rain
9:06 PM 42.8 °F 41.1 °F 39.2 °F 87% 29.49 in 4.0 mi Variable 3.5 mph - 0.03 in Rain Rain
9:53 PM 42.1 °F - 39.9 °F 92% 29.48 in 5.0 mi Calm Calm - 0.16 in Rain Light Rain
10:15 PM 42.8 °F 41.1 °F 41.0 °F 93% 29.43 in 4.0 mi Variable 3.5 mph - 0.06 in Rain Rain
10:34 PM 42.8 °F 38.6 °F 41.0 °F 93% 29.41 in 5.0 mi Variable 6.9 mph 16.1 mph 0.09 in Rain Light Rain
10:53 PM 43.0 °F 38.8 °F 41.0 °F 93% 29.42 in 6.0 mi Variable 6.9 mph - 0.11 in Rain Light Rain
11:35 PM 44.6 °F 40.2 °F 42.8 °F 93% 29.34 in 10.0 mi South 8.1 mph - 0.02 in Rain Light Rain
11:42 PM 44.6 °F 40.7 °F 42.8 °F 93% 29.33 in 10.0 mi South 6.9 mph - 0.02 in   Overcast
11:53 PM 44.1 °F 40.1 °F 42.1 °F 93% 29.34 in 10.0 mi South 6.9 mph - 0.02 in Rain Light Rain